#timestamp,LO_Frequency,Hit,StdDev 
1665496815.4,286046996.5,N
1665496835.3,286046996.9,N
1665496855.1,286046997.4,N
1665496856.0,286046997.4,N
1665496875.8,286046997.7,N
1665496895.7,286046997.3,N
1665496915.5,286046996.5,N
1665496935.3,286046997.5,N
1665496955.2,286046997.1,N
1665496975.0,286046998.0,N
1665496975.9,286046998.0,N
1665496995.8,286046998.0,N
1665497015.6,286046997.4,N
1665497035.4,286046995.2,Y
1665497055.3,286046999.4,P
1665497075.1,286046999.6,N
1665497095.9,286046999.4,N
1665497115.7,286046999.4,N
1665497135.5,286046998.6,Y
1665497155.4,286046999.0,P
1665497175.2,286046999.3,P
1665497195.1,286046999.1,P
1665497196.0,286046999.1,Y
1665497215.8,286046999.4,P
1665497235.6,286046996.6,P
1665497255.5,286046999.2,N
1665497275.3,286046999.5,N
1665497295.1,286046996.8,N
1665497315.9,286046999.3,N
1665497335.7,286046998.9,N
1665497355.6,286046999.4,N
1665497375.4,286046998.7,N
1665497395.2,286046998.8,N
1665497415.1,286046998.3,N
1665497416.0,286046998.3,N
1665497435.8,286046999.3,N
1665497455.6,286046998.1,N
1665497475.5,286046998.6,N
1665497495.3,286046998.6,N
1665497515.2,286046998.6,N
1665497535.9,286046998.6,N
1665497555.7,286046998.3,N
1665497575.6,286046998.2,N
1665497595.4,286047000.0,N
1665497615.2,286047001.2,N
1665497635.1,286046998.1,N
1665497636.0,286046998.1,N
1665497655.8,286047000.8,N
1665497675.7,286046998.1,N
1665497695.5,286047000.8,N
1665497715.3,286046998.3,N
1665497735.2,286046999.0,N
1665497755.0,286046999.3,N
1665497755.9,286046999.3,N
1665497775.8,286046998.5,N
1665497795.6,286046999.2,N
1665497815.4,286046999.1,N
1665497835.3,286046999.1,N
1665497855.1,286046998.1,N
1665497875.8,286046998.3,N
1665497895.7,286046999.4,N
1665497915.5,286047001.2,N
1665497935.4,286046998.2,N
1665497955.2,286046998.5,N
1665497975.0,286046998.1,N
1665497975.9,286046998.1,N
1665497995.8,286047001.2,N
1665498015.6,286047001.1,N
1665498035.4,286046998.6,N
1665498055.3,286046999.1,N
1665498075.1,286046999.3,N
1665498095.9,286046998.7,N
1665498115.7,286046998.4,N
1665498135.5,286046998.6,N
1665498155.4,286046998.4,N
1665498175.2,286046998.8,N
1665498195.0,286046998.4,N
1665498196.0,286046998.4,N
1665498215.8,286046999.6,N
1665498235.6,286046996.8,Y
1665498255.5,286046999.1,P
1665498275.3,286046999.1,P
1665498295.1,286046999.2,P
1665498315.9,286046999.2,Y
1665498335.7,286046998.1,P
1665498355.6,286047001.0,N
1665498375.4,286047001.2,N
1665498395.2,286046999.9,N
1665498415.1,286047002.2,N
1665498416.0,286047002.2,N
1665498435.8,286047002.0,N
1665498455.7,286047001.5,N
1665498475.5,286047003.7,N
1665498495.3,286047003.5,N
1665498515.2,286047001.4,N
1665498535.9,286047002.0,N
1665498555.7,286047001.5,N
1665498575.6,286047003.9,N
1665498595.4,286047002.8,N
1665498615.2,286047002.8,N
1665498635.1,286046999.8,N
1665498636.0,286046999.8,N
1665498655.8,286046999.7,N
1665498675.7,286047002.0,N
1665498695.5,286047002.1,N
1665498715.3,286047001.3,N
1665498735.2,286047001.7,N
1665498755.0,286047001.6,N
1665498755.9,286047001.6,N
1665498775.8,286047002.8,N
1665498795.6,286047001.9,N
1665498815.4,286046999.9,N
1665498835.3,286047000.2,N
1665498855.1,286047002.0,N
1665498875.9,286047001.9,N
1665498895.7,286047002.7,N
1665498915.5,286047002.2,N
1665498935.4,286047001.9,N
1665498955.2,286047001.4,N
1665498975.0,286047001.8,N
1665498975.9,286047001.8,N
1665498995.8,286047002.3,N
1665499015.6,286047001.6,N
1665499035.5,286047001.9,N
1665499055.3,286047004.1,Y
1665499075.1,286047002.3,P
1665499095.9,286047000.1,N
1665499115.7,286047002.7,N
1665499135.5,286047002.4,N
1665499155.4,286047002.5,N
1665499175.2,286047001.0,N
1665499195.1,286047002.4,N
1665499196.0,286047002.4,N
1665499215.8,286047000.1,N
1665499235.6,286047000.7,N
1665499255.5,286047000.1,N
1665499275.3,286047001.0,N
1665499295.1,286047000.8,N
1665499315.9,286047001.2,N
1665499335.7,286047000.9,N
1665499355.6,286047002.3,N
1665499375.4,286047002.0,N
1665499395.2,286047003.7,Y
1665499415.1,286047000.1,P
1665499416.0,286047000.1,N
1665499435.8,286047000.0,N
1665499455.6,286047000.3,N
1665499475.5,286047000.9,N
1665499495.3,286047001.2,N
1665499515.2,286047000.3,N
1665499535.9,286047001.1,N
1665499555.7,286047000.1,N
1665499575.6,286046999.7,N
1665499595.4,286047002.7,Y
1665499615.2,286047002.4,P
1665499635.1,286047002.2,N
1665499636.0,286047002.2,N
1665499655.8,286047002.2,N
1665499675.7,286047002.0,N
1665499695.5,286047002.2,Y
1665499715.3,286047001.0,P
1665499735.2,286047000.4,N
1665499755.0,286047000.9,N
1665499755.9,286047000.9,N
1665499775.8,286047000.6,N
1665499795.6,286047000.6,N
1665499815.4,286047000.9,N
1665499835.3,286047001.1,N
1665499855.1,286046998.7,Y
1665499875.9,286046999.3,P
1665499895.7,286046997.4,P
1665499915.5,286046999.5,N
1665499935.4,286046999.2,N
1665499955.2,286046996.9,N
1665499975.0,286046996.9,N
1665499976.0,286046996.9,N
1665499995.8,286046998.6,N
1665500015.6,286047000.8,N
1665500035.5,286047000.4,N
1665500055.3,286047000.3,N
1665500075.1,286046998.2,N
1665500095.9,286046998.5,N
1665500115.7,286046998.7,N
1665500135.6,286046999.3,N
1665500155.4,286047001.0,N
1665500175.2,286047001.1,N
1665500195.1,286047000.0,N
1665500196.0,286047000.0,N
1665500215.8,286046998.4,N
1665500235.7,286046998.4,N
1665500255.5,286046999.3,N
1665500275.3,286046999.3,N
1665500295.2,286046999.4,N
1665500315.9,286046998.5,N
1665500335.7,286046995.5,Y
1665500355.6,286046996.8,P
1665500375.4,286046997.7,N
1665500395.3,286046999.2,N
